Skip Page Navigation
NASA JPL Caltech
NASA Logo - Jet Propulsion Laboratory + View the NASA Portal
+ Near-Earth Object (NEO) Program
Search JPL
JPL Home Earth Solar System Stars & Galaxies Technology
JPL Solar System Dynamics
BODIES ORBITS EPHEMERIDES TOOLS PHYSICAL DATA DISCOVERY FAQ SITE MAP
JPL Small-Body Database Browser
Search: [ help ]  
8472 Tarroni (1983 TC)
Classification: Main-belt Asteroid          SPK-ID: 2008472
Ephemeris | Orbit Diagram | Orbital Elements | Physical Parameters | Discovery Circumstances ]

[ show orbit diagram ]
Orbital Elements at Epoch 2457000.5 (2014-Dec-09.0) TDB
Reference: JPL 12 (heliocentric ecliptic J2000)
 Element Value Uncertainty (1-sigma)   Units 
e .1963693923979713 6.1197e-08  
a 2.694093535985941 1.6348e-08 AU
q 2.165056025261079 1.6851e-07 AU
i 11.90815507006429 7.7924e-06 deg
node 228.9009431211377 2.6108e-05 deg
peri 125.5756684981014 3.1308e-05 deg
M 26.65766101888073 1.6942e-05 deg
tp 2456880.898404824508
(2014-Aug-11.39840482)
7.5789e-05 JED
period 1615.166995809631
4.42
1.4702e-05
4.025e-08
d
yr
n .2228871695211576 2.0288e-09 deg/d
Q 3.223131046710801 1.9559e-08 AU
  Orbit Determination Parameters
   # obs. used (total)      936  
   data-arc span      12826 days (35.12 yr)  
   first obs. used      1979-12-18  
   last obs. used      2015-01-29  
   planetary ephem.      DE431  
   SB-pert. ephem.      SB431-BIG16  
   condition code      0  
   fit RMS      .50079  
   data source      ORB  
   producer      Otto Matic  
   solution date      2015-Feb-04 13:23:20  

Additional Information
 Earth MOID = 1.18642 AU 
 T_jup = 3.312 
[ show covariance matrix ]

Ephemeris | Orbit Diagram | Orbital Elements | Physical Parameters | Discovery Circumstances ]

Physical Parameter Table
Parameter Symbol Value Units Sigma Reference Notes
absolute magnitude H 13.2 mag n/a MPO267742  

8472 Tarroni (1983 TC)          Discovered 1983-Oct-12 by Osservatorio San Vittore at Bologna (552)
Reference: 19980313/Numbers.arcLast Updated: 2004-04-19

Alternate Designations
 1983 TC = 1979 YR4 = 1992 UL10 
Ephemeris | Orbit Diagram | Orbital Elements | Physical Parameters | Discovery Circumstances ]
ABOUT SSD CREDITS/AWARDS PRIVACY/COPYRIGHT GLOSSARY LINKS
FirstGov 2015-Mar-06 02:27 UT
(server date/time)  
NASA Home Page
Site Manager:   Ryan S. Park
Webmaster  Alan B. Chamberlin